When you browse on this site, cookies collect data to enhance your experience and personalize the content and advertising you see.
Visit our Privacy Policy to learn more. By continuing to use the site, you agree to this use of cookies and data.
  • în România
  • Lista ţărilor
  • Pe 7 zile
  • Temperatura apei
  • Hartă satelitară
  • Meteo pe hartă
  • Widget-uri
  • user-avatar
    Intrare

    Meteo pe oră la Kosterevo

    Astăzi, 25 Mai, Sâmbătă

    Timp Temperatura Precipitaţii Vânt Presiune Umiditate
    00:00 +13°C° 0 mm 3 m/s 742 mmHg 84%
    01:00 +12°C° 0 mm 3 m/s 742 mmHg 85%
    02:00 +12°C° 0 mm 3 m/s 742 mmHg 87%
    03:00 +12°C° 0 mm 3 m/s 742 mmHg 87%
    04:00 +12°C° 0 mm 3 m/s 741 mmHg 87%
    05:00 +12°C° 0 mm 3 m/s 741 mmHg 88%
    06:00 +13°C° 0 mm 3 m/s 741 mmHg 84%
    07:00 +14°C° 0 mm 3 m/s 741 mmHg 81%
    08:00 +17°C° 0 mm 3 m/s 740 mmHg 77%
    09:00 +18°C° 0.1 mm 4 m/s 740 mmHg 74%
    10:00 +19°C° 0.1 mm 4 m/s 740 mmHg 71%
    11:00 +20°C° 0.1 mm 4 m/s 740 mmHg 68%
    12:00 +20°C° 1.3 mm 4 m/s 739 mmHg 72%
    13:00 +20°C° 1.3 mm 4 m/s 739 mmHg 76%
    14:00 +20°C° 1.3 mm 4 m/s 738 mmHg 79%
    15:00 +20°C° 1 mm 4 m/s 738 mmHg 82%
    16:00 +20°C° 1 mm 3 m/s 737 mmHg 84%
    17:00 +19°C° 1 mm 3 m/s 737 mmHg 86%
    18:00 +18°C° 0.9 mm 2 m/s 737 mmHg 88%
    19:00 +17°C° 0.9 mm 2 m/s 736 mmHg 91%
    20:00 +16°C° 0.9 mm 2 m/s 736 mmHg 93%
    21:00 +15°C° 0.4 mm 2 m/s 736 mmHg 94%
    22:00 +14°C° 0.4 mm 2 m/s 736 mmHg 95%
    23:00 +14°C° 0.4 mm 2 m/s 736 mmHg 96%

    Mâine, 26 Mai, Duminică

    Timp Temperatura Precipitaţii Vânt Presiune Umiditate
    00:00 +13°C° 0 mm 2 m/s 736 mmHg 96%
    01:00 +13°C° 0 mm 1 m/s 736 mmHg 96%
    02:00 +12°C° 0 mm 1 m/s 736 mmHg 96%
    03:00 +12°C° 0 mm 2 m/s 737 mmHg 96%
    04:00 +12°C° 0 mm 2 m/s 737 mmHg 96%
    05:00 +12°C° 0 mm 2 m/s 737 mmHg 96%
    06:00 +13°C° 0 mm 2 m/s 737 mmHg 89%
    07:00 +15°C° 0 mm 2 m/s 737 mmHg 83%
    08:00 +16°C° 0 mm 2 m/s 737 mmHg 77%
    09:00 +17°C° 0 mm 2 m/s 737 mmHg 71%
    10:00 +18°C° 0 mm 3 m/s 737 mmHg 65%
    11:00 +18°C° 0 mm 3 m/s 737 mmHg 58%
    12:00 +19°C° 0 mm 3 m/s 737 mmHg 56%
    13:00 +20°C° 0 mm 3 m/s 737 mmHg 53%
    14:00 +20°C° 0 mm 3 m/s 737 mmHg 50%
    15:00 +20°C° 0 mm 3 m/s 737 mmHg 51%
    16:00 +20°C° 0 mm 3 m/s 737 mmHg 53%
    17:00 +19°C° 0 mm 3 m/s 736 mmHg 54%
    18:00 +18°C° 0 mm 3 m/s 736 mmHg 60%
    19:00 +16°C° 0 mm 3 m/s 737 mmHg 66%
    20:00 +15°C° 0 mm 2 m/s 737 mmHg 73%
    21:00 +13°C° 0 mm 3 m/s 737 mmHg 75%
    22:00 +12°C° 0 mm 3 m/s 737 mmHg 77%
    23:00 +11°C° 0 mm 3 m/s 737 mmHg 79%

    Poimâine, 27 Mai, Luni

    Timp Temperatura Precipitaţii Vânt Presiune Umiditate
    00:00 +11°C° 0 mm 3 m/s 737 mmHg 81%
    01:00 +10°C° 0 mm 3 m/s 737 mmHg 82%
    02:00 +10°C° 0 mm 3 m/s 738 mmHg 84%
    03:00 +10°C° 0 mm 3 m/s 738 mmHg 84%
    04:00 +10°C° 0 mm 4 m/s 738 mmHg 84%
    05:00 +10°C° 0 mm 4 m/s 738 mmHg 84%
    06:00 +11°C° 0 mm 4 m/s 738 mmHg 80%
    07:00 +12°C° 0 mm 5 m/s 739 mmHg 76%
    08:00 +12°C° 0 mm 5 m/s 739 mmHg 73%
    09:00 +14°C° 0.1 mm 5 m/s 739 mmHg 69%
    10:00 +15°C° 0.1 mm 6 m/s 739 mmHg 66%
    11:00 +16°C° 0.1 mm 6 m/s 739 mmHg 63%
    12:00 +16°C° 0.1 mm 6 m/s 740 mmHg 64%
    13:00 +17°C° 0.1 mm 6 m/s 740 mmHg 64%
    14:00 +17°C° 0.1 mm 6 m/s 740 mmHg 65%
    15:00 +17°C° 0.1 mm 5 m/s 740 mmHg 66%
    16:00 +17°C° 0.1 mm 5 m/s 740 mmHg 68%
    17:00 +18°C° 0.1 mm 4 m/s 740 mmHg 70%
    18:00 +17°C° 0 mm 3 m/s 741 mmHg 75%
    19:00 +16°C° 0 mm 3 m/s 741 mmHg 80%
    20:00 +15°C° 0 mm 2 m/s 741 mmHg 85%
    21:00 +15°C° 0 mm 2 m/s 741 mmHg 87%
    22:00 +14°C° 0 mm 3 m/s 741 mmHg 89%
    23:00 +14°C° 0 mm 4 m/s 741 mmHg 90%

    28 Mai, Marţi

    Timp Temperatura Precipitaţii Vânt Presiune Umiditate
    00:00 +14°C° 0 mm 3 m/s 741 mmHg 92%
    01:00 +14°C° 0 mm 3 m/s 741 mmHg 94%
    02:00 +13°C° 0 mm 3 m/s 741 mmHg 95%
    03:00 +13°C° 0 mm 3 m/s 741 mmHg 94%
    04:00 +14°C° 0 mm 3 m/s 741 mmHg 93%
    05:00 +14°C° 0 mm 3 m/s 742 mmHg 92%
    06:00 +17°C° 0 mm 3 m/s 742 mmHg 85%
    07:00 +19°C° 0 mm 4 m/s 742 mmHg 78%
    08:00 +21°C° 0 mm 4 m/s 742 mmHg 71%
    09:00 +22°C° 0.1 mm 4 m/s 742 mmHg 68%
    10:00 +23°C° 0.1 mm 5 m/s 742 mmHg 64%
    11:00 +25°C° 0.1 mm 5 m/s 742 mmHg 61%
    12:00 +25°C° 0.3 mm 5 m/s 742 mmHg 61%
    13:00 +26°C° 0.3 mm 5 m/s 742 mmHg 61%
    14:00 +26°C° 0.3 mm 4 m/s 742 mmHg 61%
    15:00 +25°C° 0.7 mm 4 m/s 742 mmHg 69%
    16:00 +24°C° 0.7 mm 3 m/s 742 mmHg 76%
    17:00 +22°C° 0.7 mm 3 m/s 742 mmHg 83%
    18:00 +21°C° 1.2 mm 3 m/s 742 mmHg 86%
    19:00 +20°C° 1.2 mm 3 m/s 742 mmHg 90%
    20:00 +19°C° 1.2 mm 3 m/s 742 mmHg 93%
    21:00 +19°C° 0.2 mm 3 m/s 742 mmHg 94%
    22:00 +19°C° 0.2 mm 3 m/s 742 mmHg 94%
    23:00 +18°C° 0.2 mm 4 m/s 742 mmHg 94%

    29 Mai, Miercuri

    Timp Temperatura Precipitaţii Vânt Presiune Umiditate
    00:00 +18°C° 0 mm 4 m/s 742 mmHg 94%
    01:00 +17°C° 0 mm 3 m/s 742 mmHg 95%
    02:00 +17°C° 0 mm 3 m/s 742 mmHg 95%
    03:00 +17°C° 0 mm 3 m/s 742 mmHg 95%
    04:00 +17°C° 0 mm 3 m/s 742 mmHg 95%
    05:00 +17°C° 0 mm 3 m/s 742 mmHg 94%
    06:00 +19°C° 0 mm 4 m/s 742 mmHg 89%
    07:00 +20°C° 0 mm 4 m/s 742 mmHg 83%
    08:00 +22°C° 0 mm 5 m/s 742 mmHg 77%
    09:00 +23°C° 0 mm 5 m/s 742 mmHg 69%
    10:00 +24°C° 0 mm 6 m/s 742 mmHg 61%
    11:00 +27°C° 0 mm 6 m/s 741 mmHg 53%
    12:00 +27°C° 0 mm 6 m/s 741 mmHg 53%
    13:00 +27°C° 0 mm 7 m/s 741 mmHg 54%
    14:00 +28°C° 0 mm 7 m/s 741 mmHg 54%
    15:00 +27°C° 0 mm 6 m/s 741 mmHg 58%
    16:00 +27°C° 0 mm 6 m/s 741 mmHg 63%
    17:00 +26°C° 0 mm 6 m/s 741 mmHg 67%
    18:00 +23°C° 1.6 mm 5 m/s 741 mmHg 75%
    19:00 +21°C° 1.6 mm 4 m/s 741 mmHg 83%
    20:00 +19°C° 1.6 mm 3 m/s 742 mmHg 92%
    21:00 +19°C° 0 mm 3 m/s 742 mmHg 93%
    22:00 +18°C° 0 mm 2 m/s 742 mmHg 95%
    23:00 +18°C° 0 mm 2 m/s 743 mmHg 97%

    30 Mai, Joi

    Timp Temperatura Precipitaţii Vânt Presiune Umiditate
    00:00 +17°C° 0.2 mm 2 m/s 743 mmHg 97%
    01:00 +16°C° 0.2 mm 2 m/s 743 mmHg 97%
    02:00 +16°C° 0.2 mm 2 m/s 743 mmHg 97%
    03:00 +14°C° 0.8 mm 3 m/s 744 mmHg 96%
    04:00 +13°C° 0.8 mm 3 m/s 744 mmHg 95%
    05:00 +12°C° 0.8 mm 3 m/s 745 mmHg 95%
    06:00 +13°C° 0.1 mm 3 m/s 745 mmHg 91%
    07:00 +14°C° 0.1 mm 3 m/s 746 mmHg 87%
    08:00 +16°C° 0.1 mm 3 m/s 747 mmHg 84%
    09:00 +17°C° 0 mm 3 m/s 747 mmHg 74%
    10:00 +18°C° 0 mm 3 m/s 747 mmHg 64%
    11:00 +19°C° 0 mm 3 m/s 748 mmHg 54%
    12:00 +20°C° 0 mm 3 m/s 748 mmHg 50%
    13:00 +20°C° 0 mm 3 m/s 748 mmHg 47%
    14:00 +21°C° 0 mm 2 m/s 748 mmHg 43%
    15:00 +20°C° 0 mm 2 m/s 748 mmHg 44%
    16:00 +20°C° 0 mm 2 m/s 748 mmHg 45%
    17:00 +20°C° 0 mm 2 m/s 748 mmHg 47%
    18:00 +18°C° 0 mm 2 m/s 748 mmHg 53%
    19:00 +16°C° 0 mm 1 m/s 748 mmHg 59%
    20:00 +14°C° 0 mm 1 m/s 748 mmHg 65%
    21:00 +13°C° 0 mm 1 m/s 748 mmHg 66%
    22:00 +12°C° 0 mm 1 m/s 748 mmHg 67%
    23:00 +11°C° 0 mm 1 m/s 749 mmHg 67%
    Arată mai mult